TimePST,TemperatureF,Dew PointF,Humidity,Sea Level PressureIn,VisibilityMPH,Wind Direction,Wind SpeedMPH,Gust SpeedMPH,PrecipitationIn,Events,Conditions,WindDirDegrees,DateUTC
12:53 AM,55.0,45.0,69,29.99,10.0,West,4.6,-,N/A,,Clear,260,2013-02-04 08:53:00
2:53 AM,51.8,44.6,76,29.99,10.0,West,4.6,-,N/A,,Clear,260,2013-02-04 10:53:00
3:53 AM,52.0,44.1,74,29.98,10.0,West,4.6,-,N/A,,Clear,270,2013-02-04 11:53:00
4:53 AM,51.1,44.1,77,29.98,10.0,WSW,4.6,-,N/A,,Clear,250,2013-02-04 12:53:00
5:53 AM,51.1,44.1,77,29.99,10.0,WSW,5.8,-,N/A,,Clear,240,2013-02-04 13:53:00
6:53 AM,51.1,43.0,74,30.00,10.0,WSW,5.8,-,N/A,,Clear,250,2013-02-04 14:53:00
7:53 AM,55.9,46.0,69,30.02,10.0,West,3.5,-,N/A,,Clear,260,2013-02-04 15:53:00
8:53 AM,63.0,48.0,58,30.03,10.0,Calm,Calm,-,N/A,,Clear,0,2013-02-04 16:53:00
9:53 AM,69.1,44.1,40,30.04,10.0,NW,8.1,-,N/A,,Clear,320,2013-02-04 17:53:00
10:53 AM,73.0,44.1,35,30.03,10.0,Calm,Calm,-,N/A,,Clear,0,2013-02-04 18:53:00
11:53 AM,75.0,41.0,29,30.01,10.0,Calm,Calm,-,N/A,,Clear,0,2013-02-04 19:53:00
12:53 PM,78.1,35.1,21,29.98,10.0,Calm,Calm,-,N/A,,Clear,0,2013-02-04 20:53:00
1:53 PM,78.1,35.1,21,29.94,10.0,NNW,5.8,-,N/A,,Clear,330,2013-02-04 21:53:00
2:53 PM,79.0,35.1,20,29.92,10.0,NE,3.5,-,N/A,,Clear,40,2013-02-04 22:53:00
3:53 PM,78.1,34.0,20,29.92,10.0,Calm,Calm,-,N/A,,Clear,0,2013-02-04 23:53:00
4:53 PM,75.9,37.0,24,29.91,10.0,Calm,Calm,-,N/A,,Clear,0,2013-02-05 00:53:00
5:53 PM,70.0,37.9,31,29.92,10.0,SSW,3.5,-,N/A,,Clear,210,2013-02-05 01:53:00
6:53 PM,66.9,37.9,34,29.94,10.0,Calm,Calm,-,N/A,,Clear,0,2013-02-05 02:53:00
7:53 PM,64.0,39.9,41,29.95,10.0,Calm,Calm,-,N/A,,Clear,0,2013-02-05 03:53:00
8:53 PM,60.1,41.0,49,29.96,10.0,SSW,3.5,-,N/A,,Clear,200,2013-02-05 04:53:00
9:53 PM,57.0,41.0,55,29.96,10.0,WSW,6.9,-,N/A,,Clear,250,2013-02-05 05:53:00
10:53 PM,55.9,39.0,53,29.96,10.0,West,5.8,-,N/A,,Clear,260,2013-02-05 06:53:00
11:53 PM,54.0,39.0,57,29.96,10.0,Calm,Calm,-,N/A,,Clear,0,2013-02-05 07:53:00